Regional Weather Roundup
Issued by NWS

Home | Current Version | Previous Version | Text Only | Print | Product List | Glossary On
Versions: 1 2 3 4 5 6 7 8 9 10 11 12 13 14 15 16 17 18 19 20 21 22 23 24 25 26 27 28 29 30 31 32 33 34 35 36 37 38 39 40 41 42 43 44 45 46 47 48 49
000
ASUS43 KMPX 211310
RWRMN
WEATHER ROUNDUP FOR MINNESOTA
NATIONAL WEATHER SERVICE TWIN CITIES/CHANHASSEN MN
700 AM CST TUE FEB 21 2017


NOTE: "FAIR" INDICATES FEW OR NO CLOUDS BELOW 12,000 FEET WITH NO
SIGNIFICANT WEATHER AND/OR OBSTRUCTIONS TO VISIBILITY. N/A MEANS
CURRENT SKY AND/OR WEATHER CONDITIONS ARE NOT AVAILABLE.

MNZ060>063-068>070-211400-
   Twin Cities Metro

CITY           SKY/WX    TMP DP  RH WIND       PRES   REMARKS
TWIN CITIES    FOG       34  32  92 VRB3      29.89F VSB 1/2
ST PAUL        FOG       32  32 100 S6        29.90F VSB 1/4 WCI  26
CRYSTAL        FOG      N/A N/A N/A S3        29.87S VSB 1/4
BLAINE         FOG       34  34 100 S5        29.88S VSB 1/4 WCI  30
LAKEVILLE      FOG       30  30 100 CALM      29.89F VSB 1/2
EDEN PRAIRIE   FOG       31  29  92 SW5       29.88S VSB<1/4 WCI  26
SOUTH ST PAUL  FOG       32  32  99 CALM      29.90S VSB 1/2
LAKE ELMO      FOG       34  34 100 CALM      29.90S VSB 1/4
$$
MNZ001>005-007-008-013>017-022>024-027-028-211400-
   Northwest Minnesota

CITY           SKY/WX    TMP DP  RH WIND       PRES   REMARKS
BEMIDJI        MOCLDY    31  31 100 S3        29.75F FOG
HALLOCK        FOG       32  32 100 CALM      29.74R VSB 1
ROSEAU         FOG       30  27  86 S5        29.76R VSB 3/4 WCI  25
WARROAD        CLOUDY    30  27  86 S3        29.75S
THIEF RVR FALL CLOUDY    30  29  96 SE3       29.74F FOG
CROOKSTON      PTCLDY    32  32 100 SE7       29.74F FOG     WCI  26
FOSSTON        PTCLDY    30  30 100 S5        29.75F FOG     WCI  25
DETROIT LAKES  CLEAR     32  30  93 SE7       29.76F FOG     WCI  26
MOORHEAD       CLEAR     34  30  86 SE9       29.73F WCI  26
PARK RAPIDS    CLEAR     31  28  89 SE3       29.77F FOG
MAHNOMEN       FAIR      34  31  91 SE6       29.74F WCI  29
$$
MNZ006-009>011-018-025>026-211400-
   North Central Minnesota

CITY           SKY/WX    TMP DP  RH WIND       PRES   REMARKS
BAUDETTE       CLOUDY    32  30  92 SW3       29.75R
FLAG ISLAND    CLOUDY    32  30  93 SW7       29.72S WCI  26
INTL FALLS     CLOUDY    33  30  88 SW3       29.75S
WASKISH        FOG       34  32  93 SW6       29.77R VSB 3/4 WCI  29
BIG FORK       CLOUDY    34  32  93 SW6       29.77R FOG     WCI  29
LONGVILLE      FOG       32  32 100 CALM      29.80F VSB 3/4
GRAND RAPIDS   FOG       33  31  92 SW6       29.81S VSB 3/4 WCI  28
CRANE LAKE     CLOUDY    32  30  93 W3        29.79S
ORR            CLOUDY    34  30  86 CALM      29.74F
COOK           CLOUDY    34  32  93 SW5       29.77F WCI  30
WALKER         PTSUNNY   32  31  98 S6        29.77F FOG     WCI  26
$$
MNZ012-019>021-037-211400-
   Northeast Minnesota

CITY           SKY/WX    TMP DP  RH WIND       PRES   REMARKS
DULUTH         FOG       33  33 100 W12       29.79S VSB 3/4 WCI  24
ELY            CLOUDY    34  32  93 W7        29.76S WCI  28
HIBBING        CLOUDY    32  32 100 SW6       29.78S FOG     WCI  26
EVELETH        CLOUDY    34  32  94 W7        29.79S FOG     WCI  27
DULUTH HARBOR  CLOUDY    36  34  93 CALM      29.84R
TWO HARBORS    CLOUDY    37  32  81 W7        29.77S
SILVER BAY     PTCLDY    36  34  93 W3        29.75F
GRAND MARAIS     N/A     37  32  82 W9G20     29.74R
G MARAIS ARPRT CLOUDY    30  27  86 W6        29.73R WCI  24
$$
MNZ029>031-032-039>041-046>048-054>057-064-211400-
   West Central Minnesota

CITY           SKY/WX    TMP DP  RH WIND       PRES   REMARKS
FERGUS FALLS   CLEAR     34  34 100 SE9       29.79F WCI  26
WHEATON        PTCLDY    36  30  80 SE9       29.76F
MORRIS         CLEAR     34  30  86 SE9       29.76F WCI  26
ALEXANDRIA     CLEAR     32  30  92 SE7       29.79F WCI  26
ELBOW LAKE     FAIR      33  31  92 E10       29.75F WCI  25
WADENA         CLEAR     28  28 100 SE3       29.79S FOG
GLENWOOD       CLEAR     30  30 100 SE5       29.81F WCI  25
APPLETON       CLEAR     34  30  86 SE6       29.78F WCI  29
BENSON         PTCLDY    32  28  86 SE5       29.81F WCI  27
ORTONVILLE     PTCLDY    36  30  80 SE7       29.76F
WILLMAR        FAIR      32  32 100 SE6       29.84F FOG     WCI  26
$$
MNZ033>034-036-042>043-049>051-058-059-211400-
   Central Minnesota

CITY           SKY/WX    TMP DP  RH WIND       PRES   REMARKS
ST CLOUD       MOCLDY    30  29  96 SE6       29.84F FOG     WCI  24
SAUK CENTRE    FAIR      31  31 100 SE7       29.82F FOG     WCI  24
PAYNESVILLE      N/A     29  29 100 CALM      29.84F FOG
AITKIN         FOG       34  30  86 CALM      29.81F VSB 1/4
PINE RIVER     FOG       30  30 100 S3        29.84F VSB 1/4
BRAINERD       FOG       30  30 100 SE5       29.82F VSB 1/4 WCI  25
STAPLES        FOG       28  28 100 CALM      29.80F VSB 1/4
LONG PRAIRIE   FAIR      28  28 100 S3        29.82S FOG
LITTLE FALLS   FOG       30  30 100 SE3       29.84S VSB 1/4
LITCHFIELD       N/A     32  32 100 CALM      29.87R FOG
BUFFALO        FOG       32  31  96 SW3       29.89R VSB 1/4
MAPLE LAKE     FOG       32  32 100 S3        29.88R VSB 1/4
HUTCHINSON     PTCLDY    33  33 100 CALM      29.87F FOG
$$
MNZ037-044-045-052-053-211400-
   East Central Minnesota

CITY           SKY/WX    TMP DP  RH WIND       PRES   REMARKS
PRINCETON      FOG       32  30  93 S3        29.87R VSB<1/4
MORA           FOG       32  32 100 S3        29.87F VSB 1/4
CAMBRIDGE      SNOW      34  34 100 S3        29.85F VSB 1/4
RUSH CITY      FOG       32  32 100 S5        29.87F VSB 1/4 WCI  27
MOOSE LAKE     CLOUDY    32  32 100 SW7       29.83R FOG     WCI  26
HINCKLEY       FOG       32  32 100 S6        29.86S VSB 1/4 WCI  26
CLOQUET        FOG       34  32  93 SW6       29.81S VSB 1   WCI  29
MCGREGOR       CLOUDY    32  32 100 SW5       29.83S VSB 1/2 WCI  27
$$
MNZ071>073-080-081-089-090-097-098-211400-
   Southwest Minnesota

CITY           SKY/WX    TMP DP  RH WIND       PRES   REMARKS
MONTEVIDEO     CLEAR     34  34 100 S7        29.81F WCI  28
GRANITE FALLS  CLEAR     35  32  88 E8        29.83F WCI  29
CANBY          CLEAR     47  37  67 SW16G25   29.78S
MARSHALL       CLEAR     39  34  82 S13       29.81F
REDWOOD FALLS  CLEAR     33  30  88 S8        29.84F WCI  26
OLIVIA         CLEAR     34  32  93 SE8       29.84F WCI  27
PIPESTONE      CLEAR     37  32  81 S12       29.83F
WINDOM         CLEAR     36  36 100 CALM      29.89F
WORTHINGTON    CLEAR     39  35  86 S15       29.87F
JACKSON        CLEAR     34  34 100 SW9       29.91S WCI  26
TRACY          CLEAR     38  36  91 S16G23    29.82F
SLAYTON        CLEAR     38  35  89 SW20      29.85F
$$
MNZ065>067-074>077-082>085-091>093-211400-
   South Central Minnesota

CITY           SKY/WX    TMP DP  RH WIND       PRES   REMARKS
MANKATO          N/A     33  32  96 S7        29.91S FOG     WCI  27
NEW ULM        CLEAR     32  30  93 S8        29.88S WCI  25
ST JAMES       CLEAR     34  32  93 S6        29.91R WCI  29
FAIRMONT       CLEAR     32  31  96 S3        29.92R
GLENCOE        CLEAR     34  34 100 S3        29.87F FOG
FARIBAULT      FOG       30  30 100 CALM      29.91S VSB 1/4
OWATONNA       CLEAR     34  32  93 S6        29.91S FOG     WCI  29
WASECA         CLEAR     32  32 100 S3        29.92S FOG
ALBERT LEA     FOG       32  32 100 SW3       29.92R VSB 1/4
$$
MNZ078>079-086>088-094>096-211400-
   Southeast Minnesota

CITY           SKY/WX    TMP DP  RH WIND       PRES   REMARKS
ROCHESTER      FOG       31  31 100 SW7       29.91S VSB 1/4 WCI  24
RED WING         N/A     30  28  93 CALM      29.91R FOG
STANTON        FOG       33  32  96 S3        29.90S VSB 1/4
DODGE CENTER   MOCLDY    32  32 100 CALM      29.90F FOG
WINONA         PTCLDY    36  34  93 CALM      29.94S FOG
AUSTIN         MIX PCPN  30  28  93 CALM      29.91F VSB<1/4
PRESTON        FOG       32  32  99 SW6       29.92F VSB<1/4 WCI  26
$$
ABBREVIATIONS USED IN REMARKS
   TC - TEMPERATURES IN CELSIUS
  WCI - WIND CHILL INDEX
   HX - HEAT INDEX
  VSB - VISIBILITY
$$




USA.gov is the U.S. government's official web portal to all federal, state and local government web resources and services.